DW3795 Weather Reports


Display with metric or nautical units.
time (UTC)temp
F
wind
direction
speed
MPH
gust
MPH
rain 1hr
in
rain 24hr
in
rain mn
in
humidity
%
barometer
mb
20260904073021 76 229 0.0 2.0 0.00 0.00 0.00 89 1014.0
20260904071520 76 229 0.0 2.0 0.00 0.00 0.00 89 1013.9
20260904070018 76 229 0.0 2.0 0.00 0.00 0.00 89 1014.2
20260904064523 76 231 0.0 1.0 0.00 0.00 0.00 88 1014.2
20260904063025 76 231 0.0 3.0 0.00 0.00 0.00 88 1014.6
20260904061512 77 233 0.0 2.0 0.00 0.00 0.00 87 1014.9
20260904060011 77 237 0.0 2.0 0.00 0.00 0.00 87 1015.2
20260904054509 77 237 0.0 1.0 0.00 0.00 0.00 87 1015.3
20260904053008 77 237 0.0 1.0 0.00 0.00 0.00 86 1015.6
20260904051506 78 236 0.0 0.0 0.00 0.00 0.00 86 1015.8
20260904050004 78 236 0.0 0.0 0.00 0.00 0.00 86 1015.8
20260904044507 78 237 0.0 1.0 0.00 0.00 0.00 85 1015.7
20260904043001 78 237 0.0 0.0 0.00 0.00 0.00 84 1015.8
20260904041602 78 237 0.0 1.0 0.00 0.00 0.00 84 1015.8
20260904040058 78 237 0.0 1.0 0.00 0.00 0.00 84 1015.6
20260904034557 79 237 0.0 2.0 0.00 0.00 0.00 83 1015.4
20260904033057 79 238 0.0 0.0 0.00 0.00 0.00 83 1015.2
20260904031559 79 237 0.0 0.0 0.00 0.00 0.00 82 1015.2
20260904030056 80 237 0.0 0.0 0.00 0.00 0.00 81 1015.2
20260904024605 80 237 0.0 0.0 0.00 0.00 0.00 80 1015.3
20260904023055 80 237 0.0 0.0 0.00 0.00 0.00 79 1015.2
20260904021557 81 237 0.0 0.0 0.00 0.00 0.00 78 1015.4
20260904020054 82 237 0.0 0.0 0.00 0.00 0.00 77 1015.5
20260904014555 82 237 0.0 1.0 0.00 0.00 0.00 75 1015.4
20260904013113 83 237 0.0 0.0 0.00 0.00 0.00 74 1015.3
20260904011552 84 237 0.0 1.0 0.00 0.00 0.00 72 1015.3
20260904010052 85 237 0.0 1.0 0.00 0.00 0.00 70 1015.0
20260904004551 87 237 0.0 1.0 0.00 0.00 0.00 66 1014.7
20260904003051 88 237 0.0 2.0 0.00 0.00 0.00 63 1014.6
20260904001605 90 215 0.0 2.0 0.00 0.00 0.00 60 1014.1
20260904000049 92 214 0.0 4.0 0.00 0.00 0.00 57 1013.9
20260903234548 92 206 3.0 6.0 0.00 0.00 0.00 55 1013.7
20260903233047 93 184 1.0 6.0 0.00 0.00 0.00 55 1013.7
20260903231548 95 198 2.0 8.0 0.00 0.00 0.00 52 1013.4
20260903230046 95 156 2.0 10.0 0.00 0.00 0.00 51 1013.4
20260903224549 96 208 3.0 6.0 0.00 0.00 0.00 51 1013.3
20260903223049 97 203 3.0 8.0 0.00 0.00 0.00 50 1013.3
20260903221545 97 190 2.0 10.0 0.00 0.00 0.00 50 1013.3
20260903220044 98 221 2.0 7.0 0.00 0.00 0.00 48 1013.4
20260903214543 98 62 2.0 7.0 0.00 0.00 0.00 48 1013.5
20260903213050 98 173 1.0 9.0 0.00 0.00 0.00 49 1013.8
20260903211541 97 172 2.0 5.0 0.00 0.00 0.00 50 1013.5
20260903210040 96 155 0.0 5.0 0.00 0.00 0.00 51 1013.9
20260903204541 98 192 0.0 3.0 0.00 0.00 0.00 51 1013.9
20260903203039 100 191 0.0 2.0 0.00 0.00 0.00 46 1014.0
20260903201534 102 196 1.0 4.0 0.00 0.00 0.00 41 1014.2
20260903200033 101 223 0.0 4.0 0.00 0.00 0.00 45 1014.4
20260903194531 101 316 1.0 3.0 0.00 0.00 0.00 44 1014.6
20260903193030 102 318 0.0 4.0 0.00 0.00 0.00 42 1014.7
20260903191538 103 121 1.0 4.0 0.00 0.00 0.00 42 1014.8
20260903190027 103 305 1.0 7.0 0.00 0.00 0.00 40 1014.9
20260903184524 103 227 1.0 4.0 0.00 0.00 0.00 44 1015.2
20260903183027 102 221 2.0 6.0 0.00 0.00 0.00 42 1015.5
20260903181520 102 187 2.0 5.0 0.00 0.00 0.00 43 1015.7
20260903180026 102 234 1.0 5.0 0.00 0.00 0.00 44 1015.7
20260903174515 101 227 0.0 6.0 0.00 0.00 0.00 43 1015.9
20260903173014 100 200 2.0 4.0 0.00 0.00 0.00 45 1016.0
20260903171513 100 197 1.0 4.0 0.00 0.00 0.00 44 1016.3
20260903170013 100 88 0.0 4.0 0.00 0.00 0.00 46 1016.4
20260903164507 100 203 2.0 5.0 0.00 0.00 0.00 46 1016.5
20260903163004 99 102 1.0 3.0 0.00 0.00 0.00 50 1016.7
20260903161600 98 158 1.0 6.0 0.00 0.00 0.00 52 1016.8
20260903160057 97 296 1.0 4.0 0.00 0.00 0.00 54 1016.8
20260903154552 96 289 1.0 4.0 0.00 0.00 0.00 56 1017.0
20260903153048 95 205 3.0 6.0 0.00 0.00 0.00 57 1017.1
20260903151545 93 256 0.0 0.0 0.00 0.00 0.00 62 1017.3
20260903150038 92 249 0.0 0.0 0.00 0.00 0.00 65 1017.3
20260903144536 90 248 0.0 2.0 0.00 0.00 0.00 68 1017.4
20260903143030 88 248 0.0 2.0 0.00 0.00 0.00 73 1017.6
20260903141526 85 294 0.0 3.0 0.00 0.00 0.00 77 1017.6
20260903140021 83 289 1.0 3.0 0.00 0.00 0.00 81 1017.3
20260903134517 80 284 0.0 2.0 0.00 0.00 0.00 85 1017.2
20260903133014 78 202 0.0 2.0 0.00 0.00 0.00 91 1017.2
20260903131509 76 206 0.0 1.0 0.00 0.00 0.00 93 1017.3
20260903130006 75 206 0.0 2.0 0.00 0.00 0.00 95 1017.5
20260903124505 74 206 0.0 1.0 0.00 0.00 0.00 95 1017.4
20260903123005 74 209 0.0 0.0 0.00 0.00 0.00 95 1017.5
20260903121507 73 210 0.0 0.0 0.00 0.00 0.00 95 1017.4
20260903120001 72 210 0.0 1.0 0.00 0.00 0.00 95 1017.4
20260903114606 72 210 0.0 0.0 0.00 0.00 0.00 95 1017.3
20260903113058 72 210 0.0 0.0 0.00 0.00 0.00 94 1017.0
20260903111555 72 210 0.0 1.0 0.00 0.00 0.00 95 1017.1
20260903110100 72 210 0.0 0.0 0.00 0.00 0.00 94 1016.8
20260903104553 71 210 0.0 0.0 0.00 0.00 0.00 94 1016.6
20260903103049 71 210 0.0 0.0 0.00 0.00 0.00 94 1016.4
20260903101550 72 210 0.0 0.0 0.00 0.00 0.00 94 1016.5
20260903100048 72 210 0.0 0.0 0.00 0.00 0.00 94 1016.4
20260903094545 72 210 0.0 0.0 0.00 0.00 0.00 94 1016.4
20260903093044 72 210 0.0 0.0 0.00 0.00 0.00 93 1016.5
20260903091542 72 210 0.0 0.0 0.00 0.00 0.00 93 1016.6
20260903090042 73 210 0.0 0.0 0.00 0.00 0.00 93 1016.5
20260903084540 73 210 0.0 0.0 0.00 0.00 0.00 93 1016.5
20260903083044 73 210 0.0 0.0 0.00 0.00 0.00 93 1016.4
20260903081537 73 210 0.0 0.0 0.00 0.00 0.00 93 1016.4
20260903080035 73 210 0.0 1.0 0.00 0.00 0.00 92 1016.3
20260903074533 73 210 0.0 1.0 0.00 0.00 0.00 92 1016.3